Skip Page Navigation
NASA JPL Caltech
NASA Logo - Jet Propulsion Laboratory + View the NASA Portal
+ Near-Earth Object (NEO) Program
Search JPL
JPL Home Earth Solar System Stars & Galaxies Technology
JPL Solar System Dynamics
BODIES ORBITS EPHEMERIDES TOOLS PHYSICAL DATA DISCOVERY FAQ SITE MAP
JPL Small-Body Database Browser
Search: [ help ]  
13390 Bouska (1999 FQ3)
Classification: Main-belt Asteroid          SPK-ID: 2013390
Ephemeris | Orbit Diagram | Orbital Elements | Physical Parameters | Discovery Circumstances ]

[ show orbit diagram ]
Orbital Elements at Epoch 2457000.5 (2014-Dec-09.0) TDB
Reference: JPL 14 (heliocentric ecliptic J2000)
 Element Value Uncertainty (1-sigma)   Units 
e .1760496569352008 6.6703e-08  
a 2.581900029804717 2.0639e-08 AU
q 2.127357415316612 1.8202e-07 AU
i 13.26069431574691 7.602e-06 deg
node 148.6297444628395 2.2622e-05 deg
peri 250.422015071521 3.0918e-05 deg
M 335.4356888270113 2.3041e-05 deg
tp 2457103.897407595629
(2015-Mar-22.39740760)
9.7679e-05 JED
period 1515.331184021046
4.15
1.817e-05
4.975e-08
d
yr
n .2375718283871865 2.8486e-09 deg/d
Q 3.036442644292822 2.4272e-08 AU
  Orbit Determination Parameters
   # obs. used (total)      1087  
   data-arc span      12135 days (33.22 yr)  
   first obs. used      1981-09-03  
   last obs. used      2014-11-24  
   planetary ephem.      DE431  
   SB-pert. ephem.      SB431-BIG16  
   condition code      0  
   fit RMS      .48828  
   data source      ORB  
   producer      Otto Matic  
   solution date      2015-Mar-09 14:34:45  

Additional Information
 Earth MOID = 1.1741 AU 
 T_jup = 3.365 
[ show covariance matrix ]

Ephemeris | Orbit Diagram | Orbital Elements | Physical Parameters | Discovery Circumstances ]

Physical Parameter Table
Parameter Symbol Value Units Sigma Reference Notes
absolute magnitude H 12.9 mag n/a MPO309257  

13390 Bouška           Discovered 1999 Mar. 18 by P. Pravec and M. Wolf at Ondřejov.
Jiř{í} Bouška (b. 1925), emeritus professor of astronomy at Charles University, Prague, studied interplanetary matter and for 30 years served as the editor of the magazine Ř{íše hvězd} (The Realm of Stars) and the Czech Astronomical Yearbook. He taught several generations of Czech astronomers, including one of the discoverers.
NOTE: some special characters may not display properly (any characters within {} are an attempt to place the proper accent above a character)
Reference: 20000320/MPCPages.arcLast Updated: 2013-03-29

Alternate Designations
 1999 FQ3 = 1981 RH = 1987 DN2 
Ephemeris | Orbit Diagram | Orbital Elements | Physical Parameters | Discovery Circumstances ]
ABOUT SSD CREDITS/AWARDS PRIVACY/COPYRIGHT GLOSSARY LINKS
FirstGov 2015-May-04 00:01 UT
(server date/time)  
NASA Home Page
Site Manager:   Ryan S. Park
Webmaster  Alan B. Chamberlin